Probability
0 0 0 0 0 0 0 0 0 0 0 0 0 0 0 0 0 0 0 0 0 0 0 0 0 0 0 0 0 0 0 0 0 0 0 0 0 0 0 0 0 0 0
0 0 0 0 0 0 0 0 0 0 0 0 0 0 0 0 0 0 0 0 0 0 0 0 0 0 0 0 0 0 0 0 0 0 0 0 0 0 0 0 0 0 0
0 0 0 0 0 0 0 0 0 0 0 0 0 0 0 0 0 0 0 0 0 0 0 0 0 0 0 0 0 0 0 0 0 0 0 0 0 0 0 0 0 0 0
0 0 0 0 0 0 0 0 0 0 0 0 0 0 0 0 0 0 0 0 0 0 0 0 0 0 0 0 0 0 0 0 0 0 0 0 0 0 0 0 0 0 0
0 0 0 0 0 0 0 0 0 0 0 0 0 0 0 0 0 0 0 0 0 0 0 0 0 0 0 0 0 0 0 0 0 0 0 0 0 0 0 0 0 0 0
0 0 0 0 0 0 0 0 0 0 0 0 0 0 0 0 0 0 0 0 0 0 0 0 0 0 0 0 0 0 0 0 0 0 0 0 0 0 0 0 0 0 0
0 0 0 0 0 0 0 0 0 0 0 0 0 0 0 0 0 0 0 0 0 0 0 0 0 0 0 0 0 0 0 0 0 0 0 0 0 0 0 0 0 0 0
0 0 0 0 0 0 0 0 0 0 0 0 0 0 0 0 0 0 0 0 0 0 0 0 0 0 0 0 0 0 0 0 0 0 0 0 0 0 0 0 0 0 0
0 0 0 0 0 0 0 0 0 0 0 0 0 0 0 0 0 0 0 0 0 0 0 0 0 0 0 0 0 0 0 0 0 0 0 0 0 0 0 0 0 0 0
0 0 0 0 0 0 0 0 0 0 0 0 0 0 0 0 0 0 0 0 0 0 0 0 0 0 0 0 0 0 0 0 0 0 0 0 0 0 0 0 0 0 0
0 0 0 0 0 0 0 0 0 0 0 0 0 0 0 0 0 0 0 0 0 0 0 0 0 0 0 0 0 0 0 0 0 0 0 0 0 0 0 0 0 0 0
0 0 0 0 0 0 0 0 0 0 0 0 0 0 0 0 0 0 0 0 0 0 0 0 0 0 0 0 0 0 0 0 0 0 0 0 0 0 0 0 0 0 0
0 0 0 0 0 0 0 0 0 0 0 0 0 0 0 0 0 0 0 0 0 0 0 0 0 0 0 0 0 0 0 0 0 0 0 0 0 0 0 0 0 0 0
0 0 0 0 0 0 0 0 0 0 0 0 0 0 0 0 0 0 0 0 0 0 0 0 0 0 0 0 0 0 0 0 0 0 0 0 0 0 0 0 0 0 0
0 0 0 0 0 0 0 0 0 0 0 0 0 0 0 0 0 0 0 0 0 0 0 0 0 0 0 0 0 0 0 0 0 0 0 0 0 0 0 0 0 0 0
0 0 0 0 0 0 0 0 0 0 0 0 0 0 0 0 0 0 0 0 0 0 0 0 0 0 0 0 0 0 0 0 0 0 0 0 0 0 0 0 0 0 0
0 0 0 0 0 0 0 0 0 0 0 0 0 0 0 0 0 0 0 0 0 0 0 0 0 0 0 0 0 0 0 0 0 0 0 0 0 0 0 0 0 0 0
0 0 0 0 0 0 0 0 0 0 0 0 0 0 0 0 0 0 0 0 0 0 0 0 0 0 0 0 0 0 0 0 0 0 0 0 0 0 0 0 0 0 0
0 0 0 0 0 0 0 0 0 0 0 0 0 0 0 0 0 0 0 0 0 0 0 0 0 0 0 0 0 0 0 0 0 0 0 0 0 0 0 0 0 0 0
0 0 0 0 0 0 0 0 0 0 0 0 0 0 0 0 0 0 0 0 0 0 0 0 0 0 0 0 0 0 0 0 0 0 0 0 0 0 0 0 0 0 0
0 0 0 0 0 0 0 0 0 0 0 0 0 0 0 0 0 0 0 0 0 0 0 0 0 0 0 0 0 0 0 0 0 0 0 0 0 0 0 0 0 0 0
0 0 0 0 0 0 0 0 0 0 0 0 0 0 0 0 0 0 0 0 0 0 0 0 0 0 0 0 0 0 0 0 0 0 0 0 0 0 0 0 0 0 0
0 0 0 0 0 0 0 0 0 0 0 0 0 0 0 0 0 0 0 0 0 0 0 0 0 0 0 0 0 0 0 0 0 0 0 0 0 0 0 0 0 0 0
0 0 0 0 0 0 0 0 0 0 0 0 0 0 0 0 0 0 0 0 0 0 0 0 0 0 0 0 0 0 0 0 0 0 0 0 0 0 0 0 0 0 0
0 0 0 0 0 0 0 0 0 0 0 0 0 0 0 0 0 0 0 0 0 0 0 0 0 0 0 0 0 0 0 0 0 0 0 0 0 0 0 0 0 0 0
0 0 0 0 0 0 0 0 0 0 0 0 0 0 0 0 0 0 0 0 0 0 0 0 0 0 0 0 0 0 0 0 0 0 0 0 0 0 0 0 0 0 0
Wind_Speed
1 1 2 1 1 1 1 0 0 0 0 0 1 1 1 1 1 1 1 1 1 1 2 1 2 2 1 1 1 1 2 2 5 5 3 4 5 6 7 6 6 6 8
1 2 2 1 1 1 1 0 0 1 0 0 1 1 1 1 1 1 1 1 1 1 1 1 2 2 2 2 1 2 2 2 3 6 5 4 5 6 6 7 7 7 7
2 2 2 1 1 1 0 0 1 0 1 1 1 1 1 1 1 1 0 1 0 1 1 1 2 2 2 2 2 2 2 3 3 4 5 4 4 5 6 7 7 6 7
2 2 2 1 1 1 0 0 0 1 1 1 1 0 0 1 1 1 1 1 1 1 1 1 2 2 2 2 2 3 3 3 3 3 4 5 5 5 4 6 7 6 7
3 2 1 1 1 1 1 0 1 1 0 0 1 1 1 0 0 0 0 0 0 1 1 2 2 2 3 3 3 3 3 2 3 3 4 4 4 5 5 5 7 8 7
3 2 1 1 1 1 1 1 1 1 1 1 1 0 1 0 1 1 0 0 1 1 1 2 2 2 3 4 5 5 3 3 3 3 4 4 6 5 5 5 6 7 7
2 2 2 2 1 1 1 1 1 0 1 1 0 0 1 1 1 1 1 0 1 1 1 2 2 2 2 2 5 6 5 6 5 3 4 5 6 6 6 6 6 6 7
3 2 2 2 2 1 1 1 1 1 1 0 0 1 1 2 1 1 1 1 1 1 2 2 3 3 2 3 3 3 3 4 5 3 4 5 5 5 4 5 6 7 7
3 3 3 3 2 2 2 2 1 1 1 0 0 0 1 2 2 2 1 0 1 2 2 2 3 3 5 5 3 3 4 4 6 7 7 7 8 8 6 4 4 5 6
5 4 3 3 3 3 2 2 1 1 1 1 0 0 1 2 2 2 1 0 1 2 2 2 3 5 6 5 2 3 5 5 4 5 6 6 6 6 7 3 3 4 5
3 3 3 3 3 3 2 2 2 1 1 1 0 1 1 2 3 3 2 1 1 2 2 2 3 6 6 6 4 3 5 5 3 3 4 4 4 4 4 3 3 3 5
3 3 3 3 3 2 3 2 2 2 2 1 1 2 2 2 2 3 3 3 2 2 2 2 3 6 6 6 4 5 6 5 2 3 3 4 4 4 4 5 5 5 6
4 3 3 2 2 3 3 3 2 2 2 2 1 2 2 2 3 4 4 4 4 2 2 4 5 6 5 4 5 6 4 2 2 3 4 4 4 4 5 5 5 5 7
4 3 3 3 2 2 2 2 3 3 3 3 3 3 3 2 2 2 2 2 3 3 3 3 5 5 4 4 4 3 2 2 2 3 4 4 4 4 4 4 5 5 6
4 3 3 3 3 3 2 3 4 4 4 4 4 3 3 3 4 4 2 2 2 2 1 1 1 2 2 2 2 2 2 2 2 3 3 4 4 4 5 4 4 4 4
4 4 3 3 3 3 2 2 4 4 4 5 5 4 4 5 4 4 5 4 3 2 1 1 2 2 3 3 3 3 3 3 3 3 3 4 4 5 5 4 4 4 6
5 4 3 3 3 3 3 3 2 2 4 6 6 7 6 6 6 5 5 4 3 2 1 2 3 3 3 3 3 4 4 3 3 3 4 4 4 5 5 5 5 5 6
4 4 4 4 4 3 3 3 3 3 3 3 5 7 7 7 7 6 5 2 2 2 3 3 4 4 4 4 4 4 4 3 3 3 4 4 4 4 5 5 5 5 6
4 4 3 3 3 3 3 3 3 3 4 3 3 4 5 5 5 5 3 2 3 4 4 4 4 4 4 4 4 4 4 4 4 4 4 4 4 4 5 5 5 7 6
4 5 4 3 3 3 3 3 4 4 4 4 4 4 2 1 2 3 3 3 4 4 4 5 4 4 4 4 4 4 4 4 4 4 4 4 4 4 5 6 6 6 6
4 4 5 4 4 4 4 4 4 4 4 5 5 5 5 4 4 4 4 4 5 5 5 5 5 4 4 4 4 4 5 5 5 5 5 4 4 4 5 5 6 6 6
4 4 4 4 4 4 4 4 4 5 5 6 5 4 6 4 4 4 4 5 5 5 5 5 5 5 5 5 5 5 6 6 6 5 5 5 4 5 5 5 5 5 5
4 4 4 4 4 4 4 4 4 5 5 5 5 4 4 4 5 5 5 5 5 5 4 4 5 5 5 5 5 6 7 7 6 5 5 5 5 5 5 5 6 6 6
4 5 5 4 4 4 4 5 5 5 5 5 5 5 5 5 5 5 5 5 5 5 4 5 6 7 8 6 5 6 7 7 6 6 7 6 6 5 5 5 6 6 6
4 5 5 5 5 5 5 5 5 5 5 5 5 5 4 5 5 5 5 5 5 5 6 6 5 6 8 10 9 8 9 10 8 6 6 6 6 6 6 6 6 6 6
4 5 5 4 5 5 5 5 5 5 5 5 5 5 5 5 5 5 5 5 5 5 6 5 7 8 9 8 10 11 10 10 9 8 6 5 6 6 5 5 6 5 5
Wind_Direction
159 141 133 134 121 117 117 158 165 100 66 39 57 52 38 32 32 56 43 40 41 17 7 2 340 333 327 321 321 307 296 275 276 295 298 309 311 317 321 320 318 316 316
140 127 127 121 113 113 119 98 67 67 60 79 88 74 46 29 35 51 20 28 32 357 337 336 324 328 320 313 315 310 301 285 278 294 306 313 313 318 319 321 324 322 316
135 134 121 118 117 120 109 68 72 83 68 67 85 82 48 28 32 21 349 354 337 312 318 313 306 314 315 316 316 309 303 296 288 289 304 312 312 319 322 319 318 317 318
141 140 137 157 163 159 129 113 113 103 87 69 60 69 58 35 35 358 5 3 355 344 329 311 306 304 305 310 312 305 299 300 306 305 305 309 310 313 320 322 322 325 321
146 144 174 170 146 129 116 110 92 74 68 69 60 46 41 51 28 11 7 2 329 323 320 311 315 315 317 317 312 295 291 304 314 308 307 310 316 325 326 322 317 319 312
156 171 169 143 127 132 132 102 88 79 71 86 70 23 356 310 276 273 296 297 286 295 308 319 315 317 326 325 316 319 319 314 308 308 306 308 313 316 316 316 315 320 318
166 172 166 157 158 167 133 107 115 133 100 92 86 18 320 299 290 302 318 4 340 322 313 310 311 317 307 315 324 331 332 326 314 299 294 296 302 307 310 308 308 306 296
173 183 179 168 176 161 138 151 167 129 120 122 56 11 339 336 332 323 348 38 358 320 316 307 299 305 306 322 323 325 324 322 313 303 282 289 294 302 300 298 301 300 293
187 197 193 181 178 169 175 187 170 137 136 129 71 20 308 319 324 320 329 353 321 318 314 311 300 300 313 323 326 316 316 315 317 312 306 312 319 324 325 326 323 318 309
201 198 187 178 178 185 194 187 157 150 173 161 160 341 282 295 305 301 288 278 291 300 306 309 310 311 318 321 313 306 306 309 324 326 326 326 326 324 327 324 297 298 302
182 168 172 175 180 186 178 164 152 152 143 154 225 287 286 287 299 295 273 236 257 284 293 300 305 313 318 318 314 297 300 320 336 330 326 326 327 329 329 322 301 279 279
160 169 178 175 172 168 163 166 159 161 171 204 245 289 291 286 290 293 282 267 270 263 279 292 302 315 317 319 318 318 324 334 339 330 321 317 320 320 316 309 297 282 268
161 175 178 169 169 166 167 171 169 176 190 213 225 257 278 280 285 285 285 280 274 264 274 293 308 318 324 324 323 327 334 332 320 309 302 301 302 300 305 306 303 296 288
173 183 176 170 174 172 175 177 184 193 202 214 225 244 263 276 274 276 268 275 279 275 286 306 316 323 324 326 330 326 318 297 281 281 289 296 305 307 306 308 310 319 313
176 181 181 183 185 186 193 202 205 212 207 210 220 220 229 251 257 254 248 247 244 252 303 357 343 328 321 315 310 298 294 288 281 283 290 299 305 307 307 312 308 311 301
181 186 188 189 191 191 195 230 240 233 236 235 238 234 242 254 276 264 263 266 263 241 137 263 276 277 279 286 291 295 288 278 279 285 285 288 295 300 305 308 305 298 296
193 192 189 191 194 196 198 208 240 258 248 250 251 251 251 259 263 267 267 268 258 208 199 250 259 265 268 271 272 273 279 284 284 279 280 284 288 293 298 300 302 301 297
198 197 193 196 198 201 205 210 215 225 251 264 259 258 261 262 265 266 265 258 267 246 233 243 251 255 258 262 265 269 276 283 277 275 275 279 281 287 292 295 295 294 296
196 201 199 198 199 202 203 207 215 225 238 255 273 276 269 270 272 269 250 213 232 247 246 247 247 250 254 256 260 263 266 270 272 272 271 272 274 278 282 284 287 289 291
204 206 199 199 201 204 204 208 216 223 232 239 247 253 245 221 244 254 230 223 232 243 245 247 248 248 250 252 255 258 264 266 267 264 266 267 266 265 273 278 280 286 285
197 201 198 203 210 211 212 215 217 219 228 238 245 240 227 225 235 235 232 230 232 238 242 245 247 247 246 246 248 252 255 261 259 260 263 264 263 266 269 272 276 278 283
193 198 200 208 212 215 219 221 222 225 230 239 250 249 239 233 238 241 242 242 239 237 235 237 245 244 240 239 241 246 252 256 256 255 260 263 262 264 268 271 276 280 283
193 199 206 213 215 217 220 224 226 231 236 239 242 239 234 233 237 240 244 247 247 247 242 236 243 250 246 241 237 237 244 250 250 247 253 260 260 260 261 266 270 278 282
196 201 208 214 216 221 226 228 228 231 236 240 240 238 236 237 239 242 244 248 249 250 245 242 243 248 251 251 246 243 246 252 249 241 238 246 254 258 258 263 266 271 276
202 206 211 214 215 220 226 231 233 234 236 238 239 241 243 243 244 244 242 244 249 253 252 248 247 250 252 253 252 252 256 258 254 244 234 236 244 248 252 258 264 272 276
209 213 215 216 218 220 224 230 234 235 238 240 240 241 241 242 246 248 246 245 249 255 256 254 250 253 258 256 256 260 261 261 255 244 232 231 236 245 248 254 260 264 271